Time+07,TemperatureF,Dew PointF,Humidity,Sea Level PressureIn,VisibilityMPH,Wind Direction,Wind SpeedMPH,Gust SpeedMPH,PrecipitationIn,Events,Conditions,WindDirDegrees,DateUTC
12:00 AM,80.6,69.8,70,29.80,6.2,NNW,5.8,-,N/A,,Scattered Clouds,340,2012-12-28 17:00:00
12:30 AM,80.6,69.8,70,29.80,6.2,NNW,5.8,-,N/A,,Scattered Clouds,340,2012-12-28 17:30:00
1:00 AM,82,71,60,29.78,5,Calm,Calm,,,,Mist,,2012-12-28 18:00:00
1:00 AM,80.6,69.8,70,29.80,6.2,NNW,4.6,-,N/A,,Scattered Clouds,330,2012-12-28 18:00:00
1:30 AM,80.6,69.8,70,29.80,6.2,NNW,5.8,-,N/A,,Scattered Clouds,340,2012-12-28 18:30:00
2:00 AM,78.8,69.8,74,29.77,6.2,NNW,6.9,-,N/A,,Scattered Clouds,340,2012-12-28 19:00:00
2:30 AM,78.8,68.0,69,29.77,6.2,NNW,6.9,-,N/A,,Scattered Clouds,330,2012-12-28 19:30:00
3:00 AM,78.8,68.0,69,29.77,6.2,NNW,6.9,-,N/A,,Scattered Clouds,330,2012-12-28 20:00:00
3:30 AM,78.8,69.8,74,29.74,6.2,NNW,6.9,-,N/A,,Scattered Clouds,340,2012-12-28 20:30:00
4:00 AM,77.0,68.0,74,29.77,6.2,NNW,3.5,-,N/A,,Scattered Clouds,340,2012-12-28 21:00:00
4:30 AM,77.0,68.0,74,29.77,6.2,NNW,3.5,-,N/A,,Scattered Clouds,330,2012-12-28 21:30:00
5:00 AM,77.0,68.0,74,29.77,6.2,NNW,3.5,-,N/A,,Scattered Clouds,340,2012-12-28 22:00:00
5:30 AM,77.0,68.0,74,29.77,5.6,North,3.5,-,N/A,,Scattered Clouds,350,2012-12-28 22:30:00
6:00 AM,77.0,68.0,74,29.80,5.6,North,3.5,-,N/A,,Scattered Clouds,360,2012-12-28 23:00:00
6:30 AM,77.0,68.0,74,29.80,5.6,North,4.6,-,N/A,,Scattered Clouds,10,2012-12-28 23:30:00
7:00 AM,79,69,65,29.80,5,Calm,Calm,,,,Mist,,2012-12-29 00:00:00
7:00 AM,75.2,68.0,78,29.80,5.0,North,4.6,-,N/A,,Scattered Clouds,360,2012-12-29 00:00:00
7:30 AM,77.0,68.0,74,29.83,5.0,NNE,3.5,-,N/A,,Scattered Clouds,20,2012-12-29 00:30:00
8:00 AM,80.6,68.0,65,29.86,5.6,North,5.8,-,N/A,,Scattered Clouds,10,2012-12-29 01:00:00
8:30 AM,80.6,68.0,65,29.86,6.2,NNE,4.6,-,N/A,,Scattered Clouds,30,2012-12-29 01:30:00
9:00 AM,82.4,68.0,62,29.86,6.2,NW,5.8,-,N/A,,Scattered Clouds,320,2012-12-29 02:00:00
9:30 AM,86.0,66.2,51,29.86,6.2,NNW,4.6,-,N/A,,Scattered Clouds,330,2012-12-29 02:30:00
10:00 AM,87.8,68.0,52,29.86,6.2,North,2.3,-,N/A,,Scattered Clouds,360,2012-12-29 03:00:00
10:30 AM,89.6,66.2,46,29.86,6.2,NE,4.6,-,N/A,,Scattered Clouds,50,2012-12-29 03:30:00
11:00 AM,91.4,64.4,41,29.86,6.2,NE,8.1,-,N/A,,Scattered Clouds,50,2012-12-29 04:00:00
11:30 AM,89.6,66.2,46,29.86,6.2,ENE,9.2,-,N/A,,Scattered Clouds,70,2012-12-29 04:30:00
12:00 PM,91.4,66.2,43,29.83,-9999.0,ENE,9.2,-,N/A,,Clear,60,2012-12-29 05:00:00
12:30 PM,91.4,66.2,43,29.83,-9999.0,ENE,9.2,-,N/A,,Clear,60,2012-12-29 05:30:00
1:00 PM,96,70,33,29.77,6,NE,6.9,,,,Scattered Clouds,40,2012-12-29 06:00:00
1:00 PM,93.2,64.4,38,29.80,6.2,ENE,9.2,-,N/A,,Scattered Clouds,60,2012-12-29 06:00:00
1:30 PM,93.2,64.4,38,29.77,6.2,ENE,10.4,-,N/A,,Scattered Clouds,70,2012-12-29 06:30:00
2:00 PM,93.2,64.4,38,29.77,6.2,East,9.2,-,N/A,,Scattered Clouds,80,2012-12-29 07:00:00
2:30 PM,93.2,62.6,36,29.74,6.2,NE,9.2,-,N/A,,Scattered Clouds,50,2012-12-29 07:30:00
3:00 PM,95.0,64.4,36,29.74,6.2,NE,8.1,-,N/A,,Scattered Clouds,50,2012-12-29 08:00:00
3:30 PM,93.2,64.4,38,29.74,6.2,ENE,8.1,-,N/A,,Scattered Clouds,60,2012-12-29 08:30:00
4:00 PM,93.2,64.4,38,29.74,6.2,ENE,6.9,-,N/A,,Scattered Clouds,60,2012-12-29 09:00:00
4:30 PM,93.2,64.4,38,29.74,6.2,NE,5.8,-,N/A,,Scattered Clouds,50,2012-12-29 09:30:00
5:00 PM,93.2,66.2,41,29.74,6.2,NNE,5.8,-,N/A,,Scattered Clouds,20,2012-12-29 10:00:00
5:30 PM,93.2,64.4,38,29.74,6.2,NNE,6.9,-,N/A,,Scattered Clouds,20,2012-12-29 10:30:00
6:00 PM,89.6,68.0,49,29.74,6.2,NNE,5.8,-,N/A,,Scattered Clouds,30,2012-12-29 11:00:00
6:30 PM,87.8,68.0,52,29.77,6.2,NNE,4.6,-,N/A,,Scattered Clouds,30,2012-12-29 11:30:00
7:00 PM,91,71,43,29.75,6,NE,2.3,,,,Scattered Clouds,40,2012-12-29 12:00:00
7:00 PM,86.0,68.0,55,29.77,6.2,NE,4.6,-,N/A,,Scattered Clouds,40,2012-12-29 12:00:00
7:30 PM,86.0,69.8,58,29.77,6.2,NE,4.6,-,N/A,,Scattered Clouds,40,2012-12-29 12:30:00
8:00 PM,86.0,71.6,62,29.80,6.2,NE,4.6,-,N/A,,Scattered Clouds,50,2012-12-29 13:00:00
8:30 PM,86.0,71.6,62,29.80,6.2,NE,4.6,-,N/A,,Scattered Clouds,50,2012-12-29 13:30:00
9:00 PM,84.2,71.6,66,29.80,6.2,NE,4.6,-,N/A,,Scattered Clouds,40,2012-12-29 14:00:00
9:30 PM,84.2,69.8,62,29.80,6.2,North,4.6,-,N/A,,Scattered Clouds,10,2012-12-29 14:30:00
10:00 PM,84.2,69.8,62,29.80,6.2,NNE,4.6,-,N/A,,Scattered Clouds,20,2012-12-29 15:00:00
10:30 PM,84.2,69.8,62,29.80,6.2,North,5.8,-,N/A,,Scattered Clouds,10,2012-12-29 15:30:00
11:00 PM,82.4,69.8,66,29.80,6.2,NNE,4.6,-,N/A,,Scattered Clouds,20,2012-12-29 16:00:00
11:30 PM,82.4,69.8,66,29.80,6.2,North,6.9,-,N/A,,Scattered Clouds,10,2012-12-29 16:30:00